QXE2174 KSBP-KSAN

Flight info

Callsign QXE2174
Flight time 0h 53m
Altitude 35000
Route MQO GVO SXC COMIX2
Aircraft E75L/M-SDE3GILORVW/S

Departure

Time 2026-05-07 21:07
Airport San Luis County Regional Airport (KSBP)

Arrival

Time 2026-05-07 22:00
Airport San Diego International Airport (KSAN)
Time Latitude Longitude Altitude Speed Heading
2026-05-07 20:54 35.23795 -120.63744 214 ft 0 kts 24°
2026-05-07 21:01 35.23790 -120.63747 214 ft 2 kts 24°
2026-05-07 21:01 35.23777 -120.63754 213 ft 2 kts 24°
2026-05-07 21:02 35.23763 -120.63762 213 ft 2 kts 24°
2026-05-07 21:02 35.23749 -120.63769 213 ft 2 kts 24°
2026-05-07 21:02 35.23738 -120.63779 213 ft 2 kts 66°
2026-05-07 21:02 35.23736 -120.63789 212 ft 1 kts 94°
2026-05-07 21:03 35.23737 -120.63797 212 ft 0 kts 91°
2026-05-07 21:04 35.23735 -120.63789 212 ft 2 kts 109°
2026-05-07 21:04 35.23716 -120.63773 213 ft 5 kts 176°
2026-05-07 21:05 35.23660 -120.63779 212 ft 10 kts 146°
2026-05-07 21:05 35.23609 -120.63693 216 ft 13 kts 123°
2026-05-07 21:05 35.23547 -120.63585 218 ft 17 kts 124°
2026-05-07 21:05 35.23471 -120.63449 221 ft 20 kts 124°
2026-05-07 21:06 35.23390 -120.63309 225 ft 18 kts 125°
2026-05-07 21:06 35.23336 -120.63246 227 ft 7 kts 173°
2026-05-07 21:06 35.23287 -120.63284 224 ft 7 kts 242°
2026-05-07 21:06 35.23290 -120.63326 223 ft 3 kts 303°
2026-05-07 21:07 35.23414 -120.63543 219 ft 65 kts 305°
2026-05-07 21:07 35.23801 -120.64218 200 ft 125 kts 305°
2026-05-07 21:07 35.24339 -120.65157 539 ft 141 kts 306°
2026-05-07 21:07 35.24925 -120.66157 1097 ft 154 kts 306°
2026-05-07 21:08 35.25532 -120.67305 1641 ft 172 kts 302°
2026-05-07 21:08 35.26166 -120.68663 2122 ft 196 kts 301°
2026-05-07 21:08 35.26944 -120.70142 2612 ft 219 kts 308°
2026-05-07 21:08 35.27854 -120.71660 3421 ft 227 kts 308°
2026-05-07 21:09 35.28812 -120.73283 3947 ft 248 kts 307°
2026-05-07 21:09 35.29848 -120.75057 4580 ft 264 kts 307°
2026-05-07 21:09 35.30921 -120.76908 5359 ft 271 kts 307°
2026-05-07 21:09 35.32010 -120.78790 6233 ft 273 kts 307°
2026-05-07 21:10 35.33090 -120.80660 7070 ft 275 kts 306°
2026-05-07 21:10 35.34200 -120.82584 7856 ft 279 kts 305°
2026-05-07 21:10 35.34931 -120.84776 8537 ft 285 kts 274°
2026-05-07 21:10 35.34582 -120.87105 9231 ft 289 kts 242°
2026-05-07 21:11 35.33235 -120.88880 9974 ft 290 kts 210°
2026-05-07 21:11 35.31299 -120.89572 10615 ft 295 kts 179°
2026-05-07 21:11 35.27837 -120.87084 11626 ft 312 kts 117°
2026-05-07 21:12 35.27154 -120.84570 12107 ft 320 kts 103°
2026-05-07 21:12 35.26581 -120.81905 12687 ft 326 kts 104°
2026-05-07 21:12 35.25981 -120.79256 13335 ft 329 kts 104°
2026-05-07 21:12 35.25219 -120.76611 13983 ft 333 kts 120°
2026-05-07 21:13 35.23647 -120.74524 14614 ft 338 kts 140°
2026-05-07 21:13 35.21778 -120.72749 15228 ft 341 kts 141°
2026-05-07 21:13 35.19875 -120.70958 15801 ft 345 kts 140°
2026-05-07 21:13 35.17972 -120.69174 16383 ft 349 kts 141°
2026-05-07 21:14 35.16041 -120.67368 16955 ft 352 kts 141°
2026-05-07 21:14 35.14084 -120.65537 17518 ft 355 kts 141°
2026-05-07 21:14 35.12123 -120.63705 18076 ft 358 kts 141°
2026-05-07 21:14 35.10133 -120.61847 18610 ft 361 kts 141°
2026-05-07 21:15 35.08120 -120.59968 19145 ft 364 kts 141°
2026-05-07 21:15 35.06113 -120.58098 19684 ft 367 kts 141°
2026-05-07 21:15 35.04095 -120.56216 20209 ft 370 kts 141°
2026-05-07 21:15 35.02036 -120.54299 20721 ft 373 kts 140°
2026-05-07 21:16 34.99975 -120.52382 21213 ft 376 kts 140°
2026-05-07 21:16 34.97879 -120.50432 21708 ft 378 kts 140°
2026-05-07 21:16 34.95801 -120.48500 22197 ft 381 kts 140°
2026-05-07 21:16 34.93681 -120.46532 22680 ft 383 kts 140°
2026-05-07 21:17 34.91550 -120.44553 23142 ft 386 kts 140°
2026-05-07 21:17 34.89410 -120.42568 23589 ft 389 kts 140°
2026-05-07 21:17 34.87271 -120.40585 24003 ft 392 kts 140°
2026-05-07 21:17 34.85074 -120.38551 24426 ft 395 kts 140°
2026-05-07 21:18 34.82900 -120.36538 24840 ft 398 kts 140°
2026-05-07 21:18 34.80722 -120.34525 25021 ft 388 kts 141°
2026-05-07 21:18 34.78525 -120.32492 25069 ft 401 kts 141°
2026-05-07 21:18 34.76282 -120.30420 25078 ft 415 kts 141°
2026-05-07 21:19 34.73921 -120.28240 25073 ft 427 kts 141°
2026-05-07 21:19 34.71576 -120.26078 25061 ft 429 kts 141°
2026-05-07 21:19 34.69194 -120.23882 25055 ft 428 kts 141°
2026-05-07 21:19 34.66828 -120.21703 25057 ft 427 kts 141°
2026-05-07 21:20 34.64465 -120.19528 25055 ft 427 kts 141°
2026-05-07 21:20 34.62105 -120.17358 25061 ft 427 kts 141°
2026-05-07 21:20 34.59728 -120.15173 25062 ft 427 kts 141°
2026-05-07 21:20 34.57372 -120.13010 25064 ft 428 kts 141°
2026-05-07 21:21 34.54984 -120.10817 25061 ft 428 kts 141°
2026-05-07 21:21 34.52752 -120.08499 25051 ft 425 kts 130°
2026-05-07 21:21 34.50864 -120.05767 25072 ft 425 kts 127°
2026-05-07 21:21 34.48990 -120.02998 25060 ft 425 kts 127°
2026-05-07 21:22 34.47105 -120.00215 25058 ft 425 kts 127°
2026-05-07 21:22 34.45227 -119.97445 25059 ft 425 kts 127°
2026-05-07 21:22 34.43363 -119.94697 25060 ft 425 kts 127°
2026-05-07 21:22 34.41478 -119.91919 25059 ft 425 kts 127°
2026-05-07 21:23 34.39620 -119.89185 25059 ft 425 kts 127°
2026-05-07 21:23 34.37746 -119.86428 25059 ft 425 kts 127°
2026-05-07 21:23 34.35871 -119.83672 25060 ft 425 kts 127°
2026-05-07 21:23 34.33990 -119.80910 25059 ft 425 kts 127°
2026-05-07 21:24 34.32098 -119.78133 25059 ft 426 kts 127°
2026-05-07 21:24 34.30229 -119.75393 25055 ft 426 kts 127°
2026-05-07 21:24 34.28331 -119.72611 25050 ft 426 kts 127°
2026-05-07 21:24 34.26452 -119.69860 25047 ft 426 kts 127°
2026-05-07 21:25 34.24572 -119.67110 25042 ft 426 kts 127°
2026-05-07 21:25 34.22691 -119.64362 25042 ft 426 kts 127°
2026-05-07 21:25 34.20798 -119.61596 25041 ft 426 kts 127°
2026-05-07 21:25 34.18905 -119.58834 25041 ft 426 kts 127°
2026-05-07 21:26 34.17034 -119.56104 25042 ft 426 kts 127°
2026-05-07 21:26 34.15155 -119.53367 25038 ft 425 kts 127°
2026-05-07 21:26 34.13254 -119.50599 25038 ft 426 kts 127°
2026-05-07 21:26 34.11374 -119.47862 25040 ft 426 kts 127°
2026-05-07 21:27 34.09466 -119.45089 25046 ft 426 kts 127°
2026-05-07 21:27 34.07595 -119.42371 25046 ft 426 kts 127°
2026-05-07 21:27 34.05682 -119.39593 25047 ft 427 kts 127°
2026-05-07 21:27 34.03804 -119.36869 25048 ft 426 kts 127°
2026-05-07 21:28 34.01894 -119.34101 25048 ft 426 kts 128°
2026-05-07 21:28 34.00011 -119.31374 25050 ft 426 kts 128°
2026-05-07 21:28 33.98123 -119.28643 25052 ft 426 kts 128°
2026-05-07 21:28 33.96205 -119.25869 25052 ft 426 kts 128°
2026-05-07 21:29 33.94328 -119.23156 25050 ft 425 kts 128°
2026-05-07 21:29 33.92439 -119.20429 25049 ft 425 kts 128°
2026-05-07 21:29 33.90551 -119.17705 25045 ft 425 kts 128°
2026-05-07 21:29 33.88750 -119.15109 25040 ft 425 kts 128°
2026-05-07 21:30 33.86850 -119.12371 25038 ft 426 kts 128°
2026-05-07 21:30 33.84970 -119.09666 25036 ft 426 kts 128°
2026-05-07 21:30 33.83059 -119.06917 25034 ft 425 kts 128°
2026-05-07 21:30 33.81179 -119.04214 25032 ft 426 kts 128°
2026-05-07 21:31 33.79263 -119.01463 25031 ft 426 kts 128°
2026-05-07 21:31 33.77464 -118.98881 25026 ft 426 kts 128°
2026-05-07 21:31 33.75576 -118.96172 25025 ft 426 kts 128°
2026-05-07 21:31 33.73653 -118.93417 25016 ft 426 kts 128°
2026-05-07 21:32 33.71764 -118.90712 25020 ft 426 kts 128°
2026-05-07 21:32 33.69863 -118.87991 25016 ft 426 kts 128°
2026-05-07 21:32 33.67940 -118.85242 25015 ft 426 kts 128°
2026-05-07 21:32 33.66048 -118.82540 25015 ft 426 kts 128°
2026-05-07 21:33 33.64129 -118.79799 25019 ft 426 kts 128°
2026-05-07 21:33 33.62237 -118.77101 25016 ft 427 kts 127°
2026-05-07 21:33 33.60329 -118.74381 25013 ft 427 kts 128°
2026-05-07 21:33 33.58411 -118.71649 25016 ft 427 kts 128°
2026-05-07 21:34 33.56486 -118.68909 25019 ft 428 kts 127°
2026-05-07 21:34 33.54577 -118.66194 25019 ft 428 kts 127°
2026-05-07 21:34 33.52653 -118.63460 25017 ft 428 kts 127°
2026-05-07 21:34 33.50755 -118.60764 25022 ft 428 kts 128°
2026-05-07 21:35 33.48832 -118.58035 25026 ft 428 kts 127°
2026-05-07 21:35 33.46909 -118.55308 25033 ft 428 kts 127°
2026-05-07 21:35 33.44997 -118.52599 25031 ft 427 kts 127°
2026-05-07 21:35 33.43070 -118.49871 25037 ft 427 kts 127°
2026-05-07 21:36 33.41167 -118.47179 25040 ft 428 kts 127°
2026-05-07 21:36 33.39255 -118.44476 25048 ft 427 kts 127°
2026-05-07 21:36 33.37680 -118.41456 25046 ft 422 kts 107°
2026-05-07 21:36 33.37009 -118.38104 25074 ft 418 kts 96°
2026-05-07 21:37 33.36534 -118.34675 25045 ft 412 kts 97°
2026-05-07 21:37 33.36084 -118.31348 25036 ft 404 kts 96°
2026-05-07 21:37 33.35640 -118.28036 25038 ft 404 kts 96°
2026-05-07 21:37 33.35199 -118.24754 25035 ft 404 kts 96°
2026-05-07 21:38 33.34752 -118.21431 24840 ft 406 kts 96°
2026-05-07 21:38 33.34277 -118.18151 24376 ft 404 kts 98°
2026-05-07 21:38 33.33760 -118.14848 23893 ft 398 kts 98°
2026-05-07 21:38 33.33259 -118.11649 23461 ft 395 kts 98°
2026-05-07 21:39 33.32757 -118.08446 23030 ft 391 kts 97°
2026-05-07 21:39 33.32256 -118.05254 22584 ft 389 kts 98°
2026-05-07 21:39 33.31757 -118.02088 22152 ft 385 kts 97°
2026-05-07 21:39 33.31265 -117.98962 21733 ft 383 kts 97°
2026-05-07 21:40 33.30779 -117.95885 21316 ft 380 kts 98°
2026-05-07 21:40 33.30291 -117.92793 20890 ft 378 kts 98°
2026-05-07 21:40 33.29799 -117.89688 20461 ft 376 kts 97°
2026-05-07 21:40 33.29321 -117.86674 20068 ft 374 kts 98°
2026-05-07 21:41 33.28833 -117.83608 19664 ft 370 kts 98°
2026-05-07 21:41 33.28362 -117.80645 19237 ft 367 kts 97°
2026-05-07 21:41 33.27883 -117.77640 18846 ft 366 kts 97°
2026-05-07 21:41 33.27407 -117.74661 18424 ft 363 kts 97°
2026-05-07 21:42 33.26937 -117.71724 18046 ft 361 kts 97°
2026-05-07 21:42 33.26472 -117.68819 17655 ft 359 kts 97°
2026-05-07 21:42 33.26004 -117.65903 17261 ft 357 kts 98°
2026-05-07 21:42 33.25538 -117.63004 16874 ft 355 kts 98°
2026-05-07 21:43 33.24642 -117.60277 16490 ft 359 kts 122°
2026-05-07 21:43 33.22932 -117.58110 16095 ft 362 kts 134°
2026-05-07 21:43 33.21061 -117.56106 15672 ft 359 kts 135°
2026-05-07 21:43 33.19202 -117.54137 15275 ft 357 kts 135°
2026-05-07 21:44 33.17337 -117.52171 14881 ft 354 kts 135°
2026-05-07 21:44 33.15513 -117.50252 14497 ft 352 kts 135°
2026-05-07 21:44 33.13655 -117.48343 14100 ft 351 kts 140°
2026-05-07 21:44 33.11667 -117.46658 13768 ft 350 kts 141°
2026-05-07 21:45 33.09694 -117.45013 13387 ft 348 kts 141°
2026-05-07 21:45 33.07711 -117.43361 13009 ft 346 kts 141°
2026-05-07 21:45 33.05723 -117.41705 12621 ft 344 kts 141°
2026-05-07 21:45 33.03814 -117.40108 12244 ft 333 kts 141°
2026-05-07 21:46 33.01940 -117.38535 11876 ft 320 kts 141°
2026-05-07 21:46 33.00162 -117.37044 11522 ft 309 kts 141°
2026-05-07 21:46 32.98441 -117.35601 11190 ft 298 kts 141°
2026-05-07 21:46 32.96776 -117.34206 10879 ft 289 kts 142°
2026-05-07 21:47 32.95160 -117.32852 10569 ft 280 kts 142°
2026-05-07 21:47 32.93584 -117.31532 10261 ft 274 kts 142°
2026-05-07 21:47 32.92043 -117.30241 9960 ft 270 kts 142°
2026-05-07 21:47 32.90494 -117.28952 9731 ft 272 kts 142°
2026-05-07 21:48 32.88937 -117.27656 9432 ft 273 kts 142°
2026-05-07 21:48 32.87371 -117.26354 9124 ft 272 kts 143°
2026-05-07 21:48 32.85840 -117.25082 8821 ft 270 kts 143°
2026-05-07 21:48 32.84299 -117.23801 8532 ft 269 kts 143°
2026-05-07 21:49 32.82755 -117.22520 8230 ft 268 kts 143°
2026-05-07 21:49 32.81388 -117.21069 7937 ft 264 kts 119°
2026-05-07 21:49 32.80743 -117.19093 7692 ft 253 kts 103°
2026-05-07 21:49 32.80284 -117.17118 7397 ft 246 kts 103°
2026-05-07 21:50 32.79843 -117.15180 7125 ft 240 kts 103°
2026-05-07 21:50 32.79414 -117.13275 6861 ft 236 kts 103°
2026-05-07 21:50 32.78995 -117.11404 6611 ft 235 kts 103°
2026-05-07 21:50 32.78577 -117.09543 6450 ft 225 kts 102°
2026-05-07 21:51 32.78183 -117.07782 6267 ft 218 kts 102°
2026-05-07 21:51 32.77741 -117.06090 5998 ft 216 kts 112°
2026-05-07 21:51 32.77111 -117.04459 5685 ft 216 kts 113°
2026-05-07 21:51 32.76480 -117.02840 5363 ft 217 kts 113°
2026-05-07 21:52 32.75848 -117.01220 5062 ft 216 kts 113°
2026-05-07 21:52 32.75232 -116.99641 4950 ft 210 kts 113°
2026-05-07 21:52 32.74723 -116.98015 4952 ft 209 kts 105°
2026-05-07 21:52 32.74285 -116.96349 4942 ft 211 kts 105°
2026-05-07 21:53 32.73855 -116.94697 4941 ft 211 kts 105°
2026-05-07 21:53 32.73418 -116.93031 4952 ft 213 kts 105°
2026-05-07 21:53 32.72969 -116.91331 4953 ft 214 kts 105°
2026-05-07 21:53 32.72325 -116.89784 4946 ft 216 kts 137°
2026-05-07 21:54 32.71001 -116.89082 4855 ft 208 kts 180°
2026-05-07 21:54 32.69591 -116.89358 4533 ft 207 kts 211°
2026-05-07 21:54 32.68653 -116.90582 4140 ft 205 kts 253°
2026-05-07 21:54 32.68320 -116.92215 3993 ft 205 kts 261°
2026-05-07 21:55 32.68133 -116.93871 3947 ft 202 kts 277°
2026-05-07 21:55 32.68361 -116.95517 3857 ft 203 kts 283°
2026-05-07 21:55 32.68638 -116.97118 3715 ft 193 kts 283°
2026-05-07 21:55 32.68866 -116.98614 3675 ft 172 kts 281°
2026-05-07 21:56 32.69057 -116.99972 3505 ft 161 kts 281°
2026-05-07 21:56 32.69237 -117.01257 3296 ft 154 kts 281°
2026-05-07 21:56 32.69412 -117.02497 3130 ft 152 kts 281°
2026-05-07 21:56 32.69638 -117.03719 2969 ft 153 kts 285°
2026-05-07 21:57 32.69939 -117.04958 2706 ft 154 kts 288°
2026-05-07 21:57 32.70234 -117.06145 2491 ft 149 kts 287°
2026-05-07 21:57 32.70528 -117.07332 2326 ft 149 kts 287°
2026-05-07 21:57 32.70815 -117.08501 2118 ft 148 kts 286°
2026-05-07 21:58 32.71103 -117.09676 1862 ft 147 kts 286°
2026-05-07 21:58 32.71386 -117.10836 1579 ft 143 kts 286°
2026-05-07 21:58 32.71656 -117.11946 1268 ft 135 kts 285°
2026-05-07 21:58 32.71908 -117.12981 996 ft 127 kts 285°
2026-05-07 21:59 32.72142 -117.13963 794 ft 121 kts 284°
2026-05-07 21:59 32.72361 -117.14935 668 ft 124 kts 285°
2026-05-07 21:59 32.72616 -117.15914 529 ft 123 kts 287°
2026-05-07 21:59 32.72852 -117.16885 314 ft 123 kts 284°
2026-05-07 22:00 32.73088 -117.17858 96 ft 119 kts 284°
2026-05-07 22:00 32.73302 -117.18757 23 ft 99 kts 286°
2026-05-07 22:00 32.73444 -117.19336 23 ft 52 kts 286°
2026-05-07 22:00 32.73538 -117.19737 20 ft 45 kts 285°
2026-05-07 22:01 32.73611 -117.20041 20 ft 30 kts 285°
2026-05-07 22:01 32.73587 -117.20209 20 ft 15 kts 229°
2026-05-07 22:01 32.73577 -117.20311 20 ft 12 kts 286°
2026-05-07 22:01 32.73581 -117.20412 20 ft 13 kts 238°
2026-05-07 22:02 32.73521 -117.20500 20 ft 14 kts 227°
2026-05-07 22:02 32.73435 -117.20557 20 ft 14 kts 183°
2026-05-07 22:02 32.73341 -117.20573 18 ft 13 kts 210°
2026-05-07 22:02 32.73271 -117.20604 16 ft 6 kts 188°
2026-05-07 22:03 32.73255 -117.20606 16 ft 0 kts 187°